This demonstration page uses our WeatherBlox Daily Observations layout. Learn more.

Left ArrowRight Arrow

39.92423, -83.80882

Hourly Observations for March 22, 2019

Temp ( °F °C ) Dew Point ( °F °C ) Humidity (%) Winds ( mph kmh ) Pressure ( in mb ) Visibility ( mi km ) Precip ( " mm )
12:26 am 00:26 Cloudy 39 4 34 1 81 81 WNW 17 28 29.98 1015 10 16.0934 0 0
12:56 am 00:56 Cloudy 39 3.9 33 0.6 79 79 WNW 12 19 29.97 1015 10 16.0934 0 0
1:56 am 01:56 Cloudy 38 3.3 33 0.6 83 83 WNW 12 19 29.95 1014 10 16.0934 0 0
2:56 am 02:56 Cloudy 38 3.3 34 1.1 86 86 W 10 17 29.94 1014 10 16.0934 0 0
3:56 am 03:56 Mostly Cloudy 38 3.3 34 1.1 86 86 WSW 12 19 29.91 1013 10 16.0934 0 0
4:56 am 04:56 Mostly Clear 37 2.8 34 1.1 89 89 W 13 20 29.88 1012 10 16.0934 0 0
5:56 am 05:56 Clear 36 2.2 34 1.1 93 93 W 13 20 29.87 1012 9 14.48406 0 0
6:56 am 06:56 Clear 35 1.7 33 0.6 93 93 W 12 19 29.88 1012 10 16.0934 0 0
7:56 am 07:56 Mostly Sunny 35 1.7 33 0.6 93 93 W 12 19 29.88 1012 9 14.48406 0 0
8:56 am 08:56 Sunny 38 3.3 35 1.7 89 89 W 14 22 29.87 1012 10 16.0934 0 0
9:56 am 09:56 Mostly Cloudy 40 4.4 35 1.7 83 83 WNW 20 31 29.88 1012 10 16.0934 0 0
10:56 am 10:56 Cloudy 39 3.9 34 1.1 82 82 WNW 17 28 29.91 1013 10 16.0934 0 0
11:56 am 11:56 Cloudy 41 5 32 0 70 70 NNW 18 30 29.94 1014 10 16.0934 0 0
12:11 pm 12:11 Cloudy 41 5 32 0 70 70 NNW 16 26 29.95 1014 10 16.0934 0 0
12:56 pm 12:56 Cloudy 42 5.6 31 -0.6 65 65 NW 16 26 29.95 1014 10 16.0934 0 0
1:08 pm 13:08 Cloudy 43 6 28 -2 57 57 NW 25 41 29.96 1014 10 16.0934 0 0
1:56 pm 13:56 Cloudy 43 6.1 29 -1.7 58 58 NW 14 22 29.98 1015 10 16.0934 0 0
2:56 pm 14:56 Cloudy 43 6.1 27 -2.8 53 53 NNW 22 35 29.98 1015 10 16.0934 0 0
3:56 pm 15:56 Cloudy 44 6.7 27 -2.8 51 51 NNW 17 28 30 1016 10 16.0934 0 0
4:56 pm 16:56 Mostly Cloudy 45 7.2 27 -2.8 49 49 NW 16 26 30.01 1016 10 16.0934 0 0
6:56 pm 18:56 Mostly Cloudy 43 6.1 26 -3.3 51 51 WNW 20 31 30.05 1018 10 16.0934 0 0
7:56 pm 19:56 Mostly Clear 41 5 25 -3.9 53 53 WNW 18 30 30.08 1019 10 16.0934 0 0
8:56 pm 20:56 Clear 39 3.9 26 -3.3 60 60 NW 15 24 30.11 1020 10 16.0934 0 0
9:56 pm 21:56 Clear 37 2.8 26 -3.3 65 65 NW 15 24 30.14 1021 10 16.0934 0 0
10:56 pm 22:56 Clear 35 1.7 26 -3.3 70 70 WNW 10 17 30.17 1022 10 16.0934 0 0
11:56 pm 23:56 Clear 33 0.6 26 -3.3 75 75 WNW 10 17 30.19 1022 10 16.0934 0 0

Powered by AerisWeather